TimePST,TemperatureF,Dew PointF,Humidity,Sea Level PressureIn,VisibilityMPH,Wind Direction,Wind SpeedMPH,Gust SpeedMPH,PrecipitationIn,Events,Conditions,WindDirDegrees,DateUTC
12:56 AM,19.9,14.0,78,30.08,3.0,Calm,Calm,-,N/A,,Haze,0,2012-12-15 08:56:00
1:56 AM,19.0,14.0,81,30.08,10.0,Calm,Calm,-,N/A,,Clear,0,2012-12-15 09:56:00
2:56 AM,18.0,12.9,81,30.06,10.0,NE,3.5,-,N/A,,Clear,50,2012-12-15 10:56:00
3:56 AM,19.0,14.0,81,30.06,10.0,Calm,Calm,-,N/A,,Clear,0,2012-12-15 11:56:00
4:56 AM,19.0,14.0,81,30.04,10.0,Calm,Calm,-,N/A,,Clear,0,2012-12-15 12:56:00
5:56 AM,21.0,17.1,85,30.04,9.0,Calm,Calm,-,N/A,,Partly Cloudy,0,2012-12-15 13:56:00
6:56 AM,24.1,19.0,81,30.03,10.0,Calm,Calm,-,N/A,,Overcast,0,2012-12-15 14:56:00
7:56 AM,25.0,19.9,81,30.04,10.0,Calm,Calm,-,N/A,,Overcast,0,2012-12-15 15:56:00
8:56 AM,27.0,21.9,81,30.05,3.0,Calm,Calm,-,0.00,Snow,Light Snow,0,2012-12-15 16:56:00
8:59 AM,26.6,21.2,80,29.92,1.8,Calm,Calm,-,0.00,Snow,Light Snow,0,2012-12-15 16:59:00
9:03 AM,28.4,23.0,80,29.93,0.8,Calm,Calm,-,0.00,Snow,Light Snow,0,2012-12-15 17:03:00
9:13 AM,28.4,24.8,86,29.92,0.2,Calm,Calm,-,0.01,Fog-Snow,Snow,0,2012-12-15 17:13:00
9:22 AM,30.2,24.8,80,29.92,1.0,Calm,Calm,-,0.01,Snow,Light Snow,0,2012-12-15 17:22:00
9:33 AM,30.2,24.8,80,29.92,2.0,SE,4.6,-,0.01,Snow,Light Snow,130,2012-12-15 17:33:00
9:37 AM,30.2,24.8,80,29.92,1.8,ESE,3.5,-,0.01,Snow,Light Snow,120,2012-12-15 17:37:00
9:46 AM,30.2,26.6,86,29.92,2.5,Variable,3.5,-,0.01,Snow,Light Snow,0,2012-12-15 17:46:00
9:56 AM,30.0,25.0,82,30.05,1.5,Variable,3.5,-,0.01,Snow,Light Snow,0,2012-12-15 17:56:00
10:04 AM,28.4,24.8,86,29.92,1.0,SE,3.5,-,0.00,Snow,Light Snow,140,2012-12-15 18:04:00
10:33 AM,28.4,24.8,86,29.93,1.0,SE,4.6,-,0.01,Snow,Light Snow,140,2012-12-15 18:33:00
10:39 AM,30.2,24.8,80,29.93,2.0,SE,4.6,-,0.01,Snow,Light Snow,140,2012-12-15 18:39:00
10:47 AM,30.2,24.8,80,29.93,8.0,SE,4.6,-,0.01,Snow,Light Snow,130,2012-12-15 18:47:00
10:56 AM,30.0,25.0,82,30.05,10.0,ESE,3.5,-,0.01,,Overcast,120,2012-12-15 18:56:00
11:13 AM,30.2,24.8,80,29.92,1.8,Variable,4.6,-,0.00,Snow,Light Snow,0,2012-12-15 19:13:00
11:16 AM,30.2,24.8,80,29.92,0.8,ESE,4.6,-,0.00,Snow,Light Snow,120,2012-12-15 19:16:00
11:26 AM,30.2,26.6,86,29.92,0.2,ESE,3.5,-,0.01,Fog-Snow,Snow,120,2012-12-15 19:26:00
11:37 AM,30.2,26.6,86,29.92,0.2,ESE,3.5,-,0.02,Fog-Snow,Snow,120,2012-12-15 19:37:00
11:54 AM,30.2,26.6,86,29.91,0.2,East,5.8,-,0.04,Fog-Snow,Snow,100,2012-12-15 19:54:00
11:56 AM,30.0,26.1,85,30.05,0.2,East,6.9,-,0.04,Fog-Snow,Snow,100,2012-12-15 19:56:00
12:05 PM,30.2,26.6,86,29.91,0.5,East,6.9,-,0.00,Snow,Snow,100,2012-12-15 20:05:00
12:13 PM,30.2,26.6,86,29.90,1.0,ESE,5.8,-,0.01,Snow,Light Snow,110,2012-12-15 20:13:00
12:19 PM,30.2,26.6,86,29.90,1.5,East,6.9,-,0.01,Snow,Light Snow,100,2012-12-15 20:19:00
12:27 PM,30.2,26.6,86,29.90,3.0,Variable,4.6,-,0.01,Snow,Light Snow,0,2012-12-15 20:27:00
12:47 PM,30.2,26.6,86,29.89,1.8,East,8.1,-,0.01,Snow,Light Snow,100,2012-12-15 20:47:00
12:56 PM,32.0,26.1,79,30.03,1.0,East,5.8,-,0.01,Snow,Light Snow,100,2012-12-15 20:56:00
1:10 PM,30.2,26.6,86,29.89,0.5,Variable,5.8,-,0.00,Snow,Snow,0,2012-12-15 21:10:00
1:21 PM,32.0,26.6,80,29.88,1.5,East,5.8,-,0.01,Snow,Light Snow,100,2012-12-15 21:21:00
1:25 PM,32.0,26.6,80,29.89,3.0,East,5.8,-,0.01,Snow,Light Snow,100,2012-12-15 21:25:00
1:56 PM,30.9,26.1,82,30.02,8.0,Variable,4.6,-,0.01,,Overcast,0,2012-12-15 21:56:00
2:36 PM,30.2,26.6,86,29.88,1.8,East,5.8,-,0.00,Snow,Light Snow,100,2012-12-15 22:36:00
2:56 PM,30.9,26.1,82,30.02,1.8,ESE,4.6,-,0.00,Snow,Light Snow,120,2012-12-15 22:56:00
3:01 PM,30.2,26.6,86,29.88,2.0,SE,4.6,-,0.00,Snow,Light Snow,130,2012-12-15 23:01:00
3:31 PM,30.2,26.6,86,29.88,2.5,ESE,3.5,-,0.00,,Haze,120,2012-12-15 23:31:00
3:52 PM,30.2,26.6,86,29.88,3.0,Variable,5.8,-,0.00,,Overcast,0,2012-12-15 23:52:00
3:56 PM,30.0,25.0,82,30.02,3.0,Variable,4.6,-,0.00,,Haze,0,2012-12-15 23:56:00
4:20 PM,30.2,24.8,80,29.88,7.0,ESE,5.8,-,N/A,,Overcast,120,2012-12-16 00:20:00
4:34 PM,30.2,24.8,80,29.89,8.0,Variable,5.8,-,N/A,,Overcast,0,2012-12-16 00:34:00
4:56 PM,30.0,25.0,82,30.04,7.0,East,5.8,-,N/A,,Overcast,100,2012-12-16 00:56:00
5:56 PM,30.0,25.0,82,30.04,7.0,ESE,4.6,-,N/A,,Overcast,110,2012-12-16 01:56:00
6:34 PM,30.2,24.8,80,29.91,7.0,ESE,5.8,-,N/A,,Overcast,110,2012-12-16 02:34:00
6:56 PM,30.9,25.0,79,30.05,6.0,ESE,4.6,-,N/A,,Haze,110,2012-12-16 02:56:00
7:56 PM,30.9,25.0,79,30.06,10.0,ESE,5.8,-,N/A,,Overcast,110,2012-12-16 03:56:00
8:56 PM,32.0,25.0,75,30.05,10.0,ESE,5.8,17.3,N/A,,Overcast,110,2012-12-16 04:56:00
9:56 PM,32.0,25.0,75,30.05,10.0,Variable,3.5,-,N/A,,Overcast,0,2012-12-16 05:56:00
10:56 PM,32.0,25.0,75,30.06,10.0,ESE,4.6,-,N/A,,Overcast,110,2012-12-16 06:56:00
11:56 PM,32.0,25.0,75,30.06,10.0,Variable,4.6,-,N/A,,Overcast,0,2012-12-16 07:56:00